Location: Newark
(54.4333°N, 18.5500°E)
Time: 20:36:36
(UTC+00:00)

Envisat - Pass Details

Date: 08 December 2019
Orbit: 764 x 766 km, 98.1° (Epoch: 24 January)

Event Time Altitude Azimuth Distance (km) Brightness Sun altitude
Rises 15:33:07 0° 138° (SE) 3,227 6.1 -9.5°
Reaches altitude 10° 15:35:31 10° 131° (SE) 2,305 5.3 -9.8°
Maximum altitude 15:40:14 40° 63° (ENE) 1,125 3.4 -10.4°
Drops below altitude 10° 15:44:58 10° 356° (N) 2,319 5.3 -11.1°
Sets 15:47:23 0° 349° (N) 3,250 6.1 -11.4°
